This demonstration page uses our WeatherBlox Daily Observations layout. Learn more.

Left ArrowRight Arrow

39.51506, -84.39828

Hourly Observations for June 27, 2015

Temp ( °F °C ) Dew Point ( °F °C ) Humidity (%) Winds ( mph kmh ) Pressure ( in mb ) Visibility ( mi km ) Precip ( " mm )
12:15 am 00:15 undefined 69 20.8 66 18.7 88 88 SE 7 11 29.83 1010 N/A N/A
12:35 am 00:35 undefined N/A N/A N/A undefined N/A N/A N/A N/A
12:55 am 00:55 undefined N/A N/A N/A undefined N/A N/A N/A N/A
1:15 am 01:15 undefined N/A N/A N/A undefined N/A N/A N/A N/A
1:35 am 01:35 undefined N/A N/A N/A undefined N/A N/A N/A N/A
1:55 am 01:55 undefined 69 20.8 65 18.6 87 87 SSE 6 9 29.83 1010 10 16 N/A
2:15 am 02:15 Cloudy with Light Rain 69 20.8 66 18.7 88 88 ESE 5 7 29.80 1009 10 16 N/A
2:35 am 02:35 Cloudy N/A N/A N/A undefined N/A N/A 7 11 N/A
2:55 am 02:55 undefined N/A N/A N/A undefined N/A N/A N/A N/A
3:15 am 03:15 undefined N/A N/A N/A undefined N/A N/A N/A N/A
3:35 am 03:35 undefined N/A N/A N/A undefined N/A N/A N/A N/A
3:55 am 03:55 undefined N/A N/A N/A undefined N/A N/A N/A N/A
4:15 am 04:15 undefined N/A N/A N/A undefined N/A N/A N/A N/A
4:35 am 04:35 undefined N/A N/A N/A S 6 9 N/A N/A N/A
4:55 am 04:55 Cloudy 69 20.8 66 18.7 88 88 SSW 6 9 29.74 1007 10 16 N/A
5:15 am 05:15 Cloudy with Heavy Rain 69 20.8 66 18.8 88 88 SSW 6 9 29.74 1007 5 8 N/A
5:35 am 05:35 undefined N/A N/A N/A undefined N/A N/A N/A N/A
5:55 am 05:55 undefined N/A N/A N/A undefined N/A N/A N/A N/A
6:15 am 06:15 undefined 69 20.8 66 19 90 90 SSW 8 13 29.74 1007 N/A N/A
6:35 am 06:35 Cloudy 69 20.8 66 19 90 90 SSW 7 11 29.74 1007 7 11 N/A
6:55 am 06:55 Cloudy with Heavy Rain 69 20.8 66 19 90 90 SW 10 17 29.74 1007 3 5 N/A
7:15 am 07:15 undefined 69 20.8 66 18.8 88 88 WSW 14 22 29.74 1007 N/A N/A
7:35 am 07:35 Cloudy 69 20.8 66 18.7 88 88 WSW 8 13 29.74 1007 7 11 N/A
7:55 am 07:55 Cloudy 69 20.8 65 18.2 85 85 W 10 17 29.74 1007 10 16 N/A
8:15 am 08:15 Cloudy 69 20.8 65 18.1 85 85 W 12 19 29.74 1007 10 16 N/A
8:35 am 08:35 Cloudy 69 20.5 64 18 86 86 W 16 26 29.74 1007 10 16 N/A
8:55 am 08:55 Cloudy 67 19.5 62 16.7 84 84 W 13 20 29.74 1007 10 16 N/A
9:15 am 09:15 Cloudy 67 19.5 62 16.6 83 83 W 10 17 29.74 1007 10 16 N/A
9:35 am 09:35 Cloudy 67 19.5 62 16.6 83 83 W 8 13 29.74 1007 10 16 N/A
9:55 am 09:55 Cloudy 66 19 60 15.7 81 81 W 12 19 29.77 1008 10 16 N/A
10:15 am 10:15 Cloudy 67 19.5 61 16 80 80 W 8 13 29.77 1008 10 16 N/A
10:35 am 10:35 Cloudy 64 18 58 14.6 81 81 W 14 22 29.77 1008 10 16 N/A
10:55 am 10:55 Cloudy 64 18 58 14.6 81 81 WNW 10 17 29.77 1008 10 16 N/A
11:15 am 11:15 Cloudy 64 18 58 14.2 79 79 WNW 7 11 29.77 1008 10 16 N/A
11:35 am 11:35 Cloudy 64 18 58 14.7 81 81 W 10 17 29.77 1008 10 16 N/A
11:55 am 11:55 Cloudy 64 18 59 14.9 82 82 W 10 17 29.80 1009 7 11 N/A
12:15 pm 12:15 Cloudy 67 19.5 60 15.5 78 78 W 10 17 29.80 1009 10 16 N/A
12:35 pm 12:35 Cloudy 67 19.5 60 15.7 79 79 W 8 13 29.80 1009 10 16 N/A
12:55 pm 12:55 Cloudy 69 20.3 61 16.3 78 78 W 10 17 29.80 1009 10 16 N/A
1:15 pm 13:15 Cloudy 67 19.5 59 15 75 75 W 13 20 29.80 1009 10 16 N/A
1:35 pm 13:35 Cloudy 69 20.4 60 15.6 74 74 W 15 24 29.80 1009 10 16 N/A
1:55 pm 13:55 Cloudy 69 20.8 60 15.6 72 72 WNW 15 24 29.80 1009 10 16 N/A
2:15 pm 14:15 Cloudy 68 20 59 15.2 74 74 WNW 16 26 29.80 1009 7 11 N/A
2:35 pm 14:35 Cloudy 68 20 60 15.4 75 75 WNW 13 20 29.80 1009 10 16 N/A
2:55 pm 14:55 Cloudy 68 20 59 15 73 73 WNW 10 17 29.80 1009 10 16 N/A
3:15 pm 15:15 Cloudy with Haze 65 18.6 58 14.7 78 78 WNW 13 20 29.83 1010 4 6 N/A
3:35 pm 15:35 Cloudy 69 20.8 59 15.1 70 70 WNW 12 19 29.80 1009 10 16 N/A
3:55 pm 15:55 Cloudy 69 20.8 59 15.2 70 70 WNW 14 22 29.80 1009 10 16 N/A
4:15 pm 16:15 Cloudy 69 20.8 59 15.2 70 70 WNW 13 20 29.80 1009 10 16 N/A
4:35 pm 16:35 Cloudy 69 20.7 60 15.3 71 71 WNW 14 22 29.83 1010 10 16 N/A
4:55 pm 16:55 Cloudy 67 19.5 57 13.9 70 70 NW 16 26 29.83 1010 10 16 N/A
5:15 pm 17:15 Cloudy 67 19.5 57 14.1 71 71 NW 15 24 29.83 1010 10 16 N/A
5:35 pm 17:35 Cloudy 64 18 56 13.3 74 74 NW 14 22 29.83 1010 10 16 N/A
5:55 pm 17:55 Cloudy 67 19.3 57 14 72 72 NW 12 19 29.83 1010 10 16 N/A
6:15 pm 18:15 Cloudy 65 18.1 55 12.6 70 70 NW 10 17 29.83 1010 10 16 N/A
6:35 pm 18:35 Cloudy 65 18.5 55 12.8 70 70 NW 12 19 29.83 1010 10 16 N/A
6:55 pm 18:55 Cloudy 67 19.5 56 13.6 69 69 NW 15 24 29.83 1010 10 16 N/A
7:15 pm 19:15 Cloudy with Haze 62 16.7 56 13.1 79 79 NNW 14 22 29.83 1010 5 8 N/A
7:35 pm 19:35 Cloudy with Drizzle 62 16.6 55 12.9 79 79 NW 14 22 29.85 1011 5 8 N/A
7:55 pm 19:55 Cloudy 63 17.3 55 12.9 76 76 WNW 10 17 29.83 1010 10 16 N/A
8:15 pm 20:15 Cloudy 64 18 55 12.6 71 71 NW 10 17 29.85 1011 10 16 N/A
8:35 pm 20:35 Partly Cloudy 64 18 54 12.3 69 69 NW 9 15 29.85 1011 10 16 N/A
8:55 pm 20:55 Mostly Cloudy 64 18 54 12.2 69 69 NW 9 15 29.85 1011 10 16 N/A
9:15 pm 21:15 Partly Cloudy 64 18 53 11.7 67 67 WNW 8 13 29.85 1011 10 16 N/A
9:35 pm 21:35 Mostly Cloudy 64 18 54 12.4 70 70 WNW 5 7 29.85 1011 10 16 N/A
9:55 pm 21:55 Mostly Cloudy 64 17.6 54 12.1 70 70 WNW 6 9 29.85 1011 10 16 N/A
10:15 pm 22:15 Partly Cloudy 63 17 53 11.8 72 72 WNW 6 9 29.85 1011 10 16 N/A
10:35 pm 22:35 Partly Cloudy 63 17 53 11.6 71 71 WNW 7 11 29.85 1011 10 16 N/A
10:55 pm 22:55 Partly Cloudy 62 16.8 52 11.3 70 70 W 8 13 29.85 1011 10 16 N/A
11:15 pm 23:15 Clear 62 16.6 52 11.3 71 71 W 7 11 29.85 1011 10 16 N/A
11:35 pm 23:35 Clear 62 16.7 52 11.1 70 70 W 8 13 29.85 1011 10 16 N/A
11:55 pm 23:55 Clear 62 16.6 52 11.2 71 71 W 8 13 29.85 1011 10 16 N/A

Powered by AerisWeather